Location: Caltech
(34.1382°N, 118.1253°W)
Time: 20:50:23
(UTC-07:00)

NOAA 19 - Visible Passes

Search period start: 16 April 2014 00:00
Search period end: 26 April 2014 00:00
Orbit: 844 x 863 km, 98.9° (Epoch: 16 April)

Date Brightness Start Highest point End Pass type
(mag) Time Alt. Az. Time Alt. Az. Time Alt. Az.
16 Apr 6.7 02:51:21 10° NNE 02:54:22 33° NNE 02:54:22 33° NNE visible
16 Apr 7.2 04:34:35 10° NW 04:36:26 13° WNW 04:36:26 13° WNW visible
17 Apr 6.8 02:40:27 10° NNE 02:43:21 31° NE 02:43:21 31° NE visible
17 Apr 7.0 04:22:47 10° NNW 04:25:25 16° NW 04:25:25 16° NW visible
18 Apr 7.0 02:29:35 10° NNE 02:32:19 27° NE 02:32:19 27° NE visible
18 Apr 6.8 04:11:16 10° NNW 04:14:23 20° NW 04:14:23 20° NW visible
19 Apr 7.2 02:18:49 10° NNE 02:21:18 24° NE 02:21:18 24° NE visible
19 Apr 6.6 03:59:54 10° NNW 04:03:22 24° NW 04:03:22 24° NW visible
20 Apr 7.4 02:08:07 10° NE 02:10:16 20° NE 02:10:16 20° NE visible
20 Apr 6.4 03:48:37 10° N 03:52:20 30° NW 03:52:20 30° NW visible
21 Apr 7.6 01:57:32 10° NE 01:59:14 16° ENE 01:59:14 16° ENE visible
21 Apr 6.2 03:37:25 10° N 03:41:18 35° NW 03:41:18 35° NW visible
22 Apr 7.8 01:47:08 10° NE 01:48:12 13° ENE 01:48:12 13° ENE visible
22 Apr 6.0 03:26:17 10° N 03:30:16 42° NNW 03:30:16 42° NNW visible
23 Apr 8.0 01:37:05 10° ENE 01:37:10 10° ENE 01:37:10 10° ENE visible
23 Apr 5.9 03:15:12 10° N 03:19:14 47° NNW 03:19:14 47° NNW visible
24 Apr 5.9 03:04:11 10° NNE 03:08:12 50° N 03:08:12 50° N visible
25 Apr 6.0 02:53:12 10° NNE 02:57:09 48° NNE 02:57:09 48° NNE visible
25 Apr 7.2 04:36:35 10° NW 04:38:45 12° WNW 04:39:14 12° WNW visible
